Overview Statistics Trail Chart Weather Telemetry Raw packets
 

This is the latest recevied weather packets stored in our database for station/object KG5APU. If no packets are shown the sender has not sent any weather packets the latest 10 day(s).

<< 20 21 22 23 24 25 26 >>
Time Temp. Humidity Pressure Rain* Wind** Luminosity Snow
1788325769 30° C 65% 1016 hPa 0 mm - 0 W/m² -
1788325164 30° C 65% 1015.9 hPa 0 mm - 0 W/m² -
1788324561 30.56° C 64% 1016.1 hPa 0 mm - 0 W/m² -
1788323958 30.56° C 63% 1015.7 hPa 0 mm - 0 W/m² -
1788323354 30.56° C 63% 1015.9 hPa 0 mm - 0 W/m² -
1788322749 30.56° C 62% 1015.5 hPa 0 mm - 0 W/m² -
1788322148 31.11° C 61% 1015.7 hPa 0 mm - 0 W/m² -
1788321542 31.11° C 60% 1015.6 hPa 0 mm - 0 W/m² -
1788320942 31.67° C 58% 1015.5 hPa 0 mm - 0 W/m² -
1788320342 31.67° C 59% 1015.5 hPa 0 mm - 0 W/m² -
1788319741 31.67° C 63% 1015.3 hPa 0 mm - 0 W/m² -
1788319136 31.67° C 61% 1015.2 hPa 0 mm - 0 W/m² -
1788318534 32.22° C 60% 1015.2 hPa 0 mm - 0 W/m² -
1788317933 32.22° C 58% 1015 hPa 0 mm - 0 W/m² -
1788317329 32.22° C 59% 1015 hPa 0 mm - 0 W/m² -
1788316726 32.22° C 58% 1014.8 hPa 0 mm - 0 W/m² -
1788316126 32.22° C 58% 1014.6 hPa 0 mm - 0 W/m² -
1788315524 32.22° C 58% 1014.5 hPa 0 mm - 0 W/m² -
1788314920 32.78° C 57% 1014.4 hPa 0 mm - 0 W/m² -
1788314317 32.78° C 54% 1014.2 hPa 0 mm - 0 W/m² -
1788313713 32.78° C 55% 1014.2 hPa 0 mm - 0 W/m² -
1788313109 32.78° C 54% 1014 hPa 0 mm - 0 W/m² -
1788312506 33.33° C 57% 1014.1 hPa 0 mm - 0 W/m² -
1788311903 33.33° C 54% 1014 hPa 0 mm - 0 W/m² -
1788311302 32.78° C 52% 1013.8 hPa 0 mm - 0 W/m² -

* Rain latest hour (hover to see other rain measurements)
** Current wind speed in m/s (hover to see current wind gust speed)